Snowfall_Accumulation
0.0 0.0 0.0 0.0 0.0 0.0 0.0 0.0 0.2 0.1 0.0 0.0 0.0 0.0 0.0 0.0 0.0 0.0 0.0 nan nan nan nan nan nan nan nan nan nan nan nan nan nan nan nan nan nan nan
0.0 0.0 0.0 0.0 0.0 0.0 0.0 0.0 0.0 0.1 0.3 0.0 0.0 0.0 0.0 0.0 0.0 0.0 0.0 nan nan nan nan nan nan nan nan nan nan nan nan nan nan nan nan nan nan nan
0.0 0.0 0.0 0.0 0.0 0.0 0.0 0.0 0.0 0.0 0.1 0.0 0.0 0.0 0.0 0.0 0.0 0.0 0.0 0.0 0.0 nan nan nan nan nan nan nan nan nan nan nan nan nan nan nan nan nan
0.0 0.0 0.0 0.0 0.0 0.0 0.0 0.0 0.0 0.0 0.1 0.1 0.0 0.0 0.0 0.0 0.0 0.0 0.0 0.0 0.0 nan nan nan nan nan nan nan nan nan nan nan nan nan nan nan nan nan
0.0 0.0 0.0 0.0 0.0 0.0 0.0 0.0 0.0 0.0 0.0 0.2 0.0 0.0 0.0 0.0 0.0 0.0 0.0 0.0 0.0 nan nan nan nan nan nan nan nan nan nan nan nan nan nan nan nan nan
0.0 0.0 0.1 0.2 0.4 0.2 0.0 0.0 0.0 0.0 0.0 0.0 0.0 0.0 0.0 0.0 0.0 0.0 0.0 0.0 0.0 0.1 nan nan nan nan nan nan nan nan nan nan nan nan nan nan nan nan
0.0 0.0 0.2 nan nan nan 0.6 0.3 0.1 0.1 0.1 0.1 0.1 0.1 0.0 0.0 0.1 0.1 0.1 0.1 0.4 0.4 0.4 0.2 0.1 0.1 0.1 nan nan nan nan nan nan nan nan nan nan nan
0.3 0.1 0.2 0.3 0.3 nan nan nan nan 1.8 0.5 0.7 0.6 0.6 0.3 0.4 0.2 0.5 0.3 0.2 0.3 0.1 0.7 0.8 0.4 0.3 0.2 0.2 nan nan nan nan nan nan nan nan nan nan
1.7 1.2 1.0 1.5 nan 0.8 nan nan nan nan nan 1.2 1.2 2.2 1.0 1.5 0.5 0.2 0.3 1.0 0.9 1.1 0.9 2.1 1.1 2.0 0.7 0.2 nan nan nan nan nan nan nan nan nan nan
6.1 5.6 4.4 3.3 3.8 2.6 2.7 3.3 4.6 4.1 5.0 2.9 2.9 4.3 3.0 1.3 0.9 0.8 0.9 0.9 1.5 2.5 1.4 4.9 3.5 5.1 2.0 0.7 nan nan nan nan nan nan nan nan nan nan
7.2 7.0 7.1 6.8 nan nan 5.4 6.6 8.5 11.1 nan nan nan nan nan nan nan 0.3 0.8 0.7 3.7 6.8 6.0 7.7 8.0 8.2 6.4 4.5 1.9 nan nan nan nan nan nan nan nan nan
7.6 6.4 nan 8.2 nan nan 6.3 8.0 11.7 18.1 13.4 10.2 8.9 8.0 nan nan nan 4.6 2.3 2.6 5.0 7.0 6.2 8.1 6.3 6.6 8.3 4.3 4.2 3.3 2.0 nan nan nan nan nan nan 0.8
11.5 11.2 10.5 nan nan nan nan 8.0 15.6 13.5 10.0 13.0 12.1 11.8 10.3 9.8 10.5 9.8 8.8 7.8 6.5 9.3 9.5 6.4 7.1 5.6 5.8 7.1 5.0 5.1 3.9 3.7 2.2 1.6 nan nan nan 0.8
12.0 12.5 16.2 nan nan nan 7.5 nan nan 4.7 12.2 12.1 10.8 11.1 10.3 10.4 11.7 10.1 10.2 8.7 9.0 10.5 7.5 3.6 7.9 5.9 6.6 7.5 8.0 6.2 5.3 4.5 3.5 3.2 2.5 nan nan nan
13.5 17.2 nan nan nan 1.8 nan nan 4.0 11.6 13.7 16.1 16.6 16.1 13.1 9.5 6.2 5.7 4.3 4.3 4.7 5.1 5.1 5.3 6.7 6.5 6.2 7.4 7.2 5.9 5.6 4.8 4.1 3.6 3.0 3.0 3.1 3.1
2.7 7.4 4.0 6.5 3.5 4.7 4.8 5.9 6.1 7.4 8.6 9.7 9.0 7.0 5.6 6.0 6.9 5.5 6.2 6.3 6.6 6.5 4.4 5.2 5.6 5.1 7.9 5.7 4.7 5.8 4.1 4.4 3.7 4.0 4.0 3.1 2.3 2.1
4.7 6.5 6.4 5.9 6.0 4.9 4.5 4.3 3.5 3.2 4.7 5.1 4.9 3.8 2.8 1.9 2.1 1.4 1.8 2.4 5.5 5.6 6.5 3.4 2.9 4.0 6.0 6.1 8.7 6.2 6.4 5.7 4.5 4.2 3.2 3.9 3.7 2.9
3.6 5.4 9.2 8.7 5.3 3.2 3.6 3.2 2.5 2.0 1.7 1.7 2.5 1.6 1.8 2.0 1.5 1.2 1.1 1.6 2.3 1.8 1.7 1.8 2.3 2.7 2.7 3.3 4.5 6.1 5.1 4.7 4.9 4.2 4.0 6.4 5.6 3.8
4.8 4.0 8.6 9.0 3.8 1.4 1.4 1.4 2.7 1.7 0.1 1.4 2.4 3.6 3.3 1.9 2.0 1.3 1.4 1.1 1.1 0.5 0.3 0.4 0.8 2.0 6.4 10.0 2.4 nan 4.4 3.8 4.0 4.0 2.6 4.2 6.2 5.0
1.8 3.2 5.3 4.6 1.7 1.4 1.4 1.6 1.9 3.1 3.4 2.5 4.0 5.9 6.9 4.1 3.7 2.4 1.8 3.0 1.3 0.5 0.4 0.2 0.3 0.5 2.7 7.9 10.5 4.4 nan 3.6 3.3 3.8 3.5 3.0 3.7 nan
1.7 1.7 3.6 2.9 2.1 1.4 6.3 7.6 10.1 8.8 8.1 11.6 5.7 6.1 14.5 3.2 3.9 3.0 3.5 2.9 2.1 0.7 0.9 0.6 0.3 0.2 0.3 1.0 12.5 4.3 1.8 nan 0.7 1.6 1.9 3.3 3.3 2.6
4.1 2.7 2.5 2.5 4.2 3.9 9.4 14.7 12.9 12.2 8.8 5.9 12.5 17.9 15.7 6.4 6.3 5.2 6.0 5.8 1.9 1.8 0.9 0.5 0.2 0.2 0.4 1.1 1.8 5.8 1.7 1.0 nan nan nan nan 6.0 9.7
7.7 3.5 5.4 7.1 8.8 8.8 3.4 8.8 3.5 7.0 6.8 6.9 6.2 6.5 29.4 8.3 4.3 4.4 5.3 4.0 2.3 2.1 1.3 1.4 0.5 0.4 0.5 0.5 1.3 3.2 1.2 3.4 0.9 1.2 1.5 nan nan nan
Water_Equivalent
0.00 0.00 0.00 0.00 0.00 0.00 0.00 0.00 0.03 0.02 0.00 0.00 0.00 0.00 0.00 0.00 0.00 0.00 0.00 nan nan nan nan nan nan nan nan nan nan nan nan nan nan nan nan nan nan nan
0.00 0.00 0.00 0.00 0.00 0.00 0.00 0.00 0.00 0.02 0.04 0.00 0.00 0.00 0.00 0.00 0.00 0.00 0.00 nan nan nan nan nan nan nan nan nan nan nan nan nan nan nan nan nan nan nan
0.00 0.00 0.00 0.00 0.00 0.00 0.00 0.00 0.00 0.00 0.02 0.00 0.00 0.00 0.00 0.00 0.00 0.00 0.00 0.00 0.00 nan nan nan nan nan nan nan nan nan nan nan nan nan nan nan nan nan
0.00 0.00 0.00 0.00 0.00 0.00 0.00 0.00 0.00 0.00 0.01 0.02 0.00 0.00 0.00 0.00 0.00 0.00 0.00 0.00 0.00 nan nan nan nan nan nan nan nan nan nan nan nan nan nan nan nan nan
0.00 0.00 0.00 0.00 0.00 0.00 0.00 0.00 0.00 0.00 0.00 0.03 0.00 0.00 0.00 0.00 0.00 0.00 0.00 0.00 0.00 nan nan nan nan nan nan nan nan nan nan nan nan nan nan nan nan nan
0.00 0.00 0.02 0.03 0.06 0.02 0.00 0.00 0.00 0.00 0.00 0.00 0.00 0.00 0.00 0.00 0.00 0.00 0.00 0.00 0.00 0.01 nan nan nan nan nan nan nan nan nan nan nan nan nan nan nan nan
0.00 0.00 0.03 nan nan nan 0.10 0.05 0.02 0.02 0.02 0.02 0.01 0.01 0.01 0.01 0.02 0.02 0.01 0.01 0.07 0.06 0.07 0.04 0.02 0.01 0.02 nan nan nan nan nan nan nan nan nan nan nan
0.06 0.03 0.03 0.06 0.05 nan nan nan nan 0.23 0.07 0.11 0.10 0.08 0.04 0.06 0.03 0.06 0.04 0.03 0.05 0.02 0.10 0.18 0.07 0.06 0.04 0.04 nan nan nan nan nan nan nan nan nan nan
0.28 0.20 0.15 0.24 nan 0.11 nan nan nan nan nan 0.17 0.15 0.27 0.12 0.20 0.07 0.03 0.05 0.14 0.13 0.16 0.11 0.52 0.26 0.52 0.20 0.04 nan nan nan nan nan nan nan nan nan nan
1.04 0.93 0.72 0.51 0.59 0.39 0.40 0.53 0.75 0.70 0.88 0.48 0.48 0.80 0.56 0.21 0.12 0.11 0.11 0.13 0.35 0.62 0.23 1.00 0.87 1.17 0.57 0.23 nan nan nan nan nan nan nan nan nan nan
1.16 1.22 1.23 1.08 nan nan 0.84 1.01 1.34 1.81 nan nan nan nan nan nan nan 0.08 0.26 0.20 1.06 1.65 1.48 1.54 1.76 1.77 1.68 1.27 0.71 nan nan nan nan nan nan nan nan nan
1.30 1.23 nan 1.34 nan nan 0.98 1.28 1.89 2.80 2.31 1.94 1.63 1.52 nan nan nan 0.89 0.53 0.68 1.20 1.57 1.52 1.62 1.47 1.52 1.68 1.21 1.15 0.93 0.65 nan nan nan nan nan nan 0.23
2.16 2.20 2.22 nan nan nan nan 1.45 2.51 2.45 1.81 2.36 2.17 2.26 1.92 1.82 1.89 1.82 1.62 1.45 1.32 1.63 1.73 1.40 1.44 1.24 1.29 1.35 1.03 1.05 0.90 0.86 0.54 0.42 nan nan nan 0.21
2.00 2.28 3.17 nan nan nan 1.63 nan nan 1.29 2.91 2.74 2.40 2.24 1.96 1.94 2.09 2.02 2.02 1.83 1.83 1.84 1.53 0.82 1.46 1.01 1.13 1.30 1.18 1.00 0.93 0.89 0.80 0.72 0.59 nan nan nan
2.38 3.12 nan nan nan 0.60 nan nan 1.31 2.02 2.43 2.69 2.58 2.52 2.22 1.80 1.28 1.27 1.08 1.08 1.14 1.18 1.14 1.23 1.42 1.28 1.19 1.22 1.11 0.94 0.95 0.81 0.69 0.62 0.55 0.63 0.63 0.66
0.76 1.40 1.31 1.33 1.17 1.25 1.02 1.00 1.04 1.20 1.31 1.41 1.24 0.97 0.81 0.88 1.00 0.89 1.01 1.08 1.14 1.11 0.91 1.14 1.29 1.17 1.46 1.03 0.79 0.87 0.69 0.69 0.57 0.64 0.69 0.58 0.46 0.47
1.20 1.37 1.20 1.07 0.97 0.78 0.72 0.71 0.60 0.55 0.74 0.82 0.79 0.59 0.44 0.31 0.34 0.26 0.34 0.43 0.85 0.78 0.99 0.59 0.50 0.73 0.98 1.00 1.38 0.97 0.95 0.82 0.70 0.69 0.59 0.76 0.78 0.61
0.73 0.94 1.42 1.42 0.86 0.50 0.56 0.50 0.41 0.39 0.29 0.32 0.47 0.30 0.32 0.36 0.28 0.27 0.25 0.32 0.39 0.30 0.27 0.30 0.42 0.49 0.50 0.56 0.64 0.82 0.76 0.71 0.77 0.71 0.69 1.03 0.88 0.72
0.86 0.67 1.32 1.41 0.65 0.24 0.24 0.23 0.42 0.31 0.02 0.29 0.45 0.62 0.58 0.36 0.39 0.29 0.31 0.25 0.26 0.12 0.08 0.10 0.16 0.38 0.95 1.33 0.37 nan 0.65 0.63 0.67 0.67 0.46 0.65 0.94 0.77
0.33 0.55 0.80 0.73 0.30 0.23 0.23 0.28 0.34 0.54 0.58 0.44 0.68 0.98 1.14 0.68 0.65 0.42 0.35 0.51 0.26 0.12 0.10 0.05 0.07 0.11 0.42 1.15 1.81 0.80 nan 0.67 0.61 0.63 0.51 0.46 0.65 nan
0.27 0.26 0.52 0.42 0.33 0.23 0.94 1.12 1.47 1.31 1.27 1.78 0.93 1.00 2.43 0.53 0.67 0.51 0.54 0.59 0.52 0.15 0.17 0.12 0.07 0.08 0.09 0.27 2.59 0.94 0.45 nan 0.13 0.28 0.32 0.54 0.53 0.40
0.55 0.36 0.35 0.34 0.57 0.54 1.36 2.25 2.03 1.98 1.34 0.93 1.90 2.93 2.64 1.04 0.93 0.78 0.95 0.94 0.31 0.31 0.16 0.10 0.05 0.06 0.11 0.23 0.35 1.30 0.39 0.27 nan nan nan nan 0.75 1.11
1.05 0.48 0.75 0.98 1.26 1.30 0.55 1.24 0.53 1.11 1.00 1.01 0.91 0.96 5.10 1.13 0.66 0.70 0.85 0.64 0.36 0.35 0.22 0.23 0.10 0.09 0.12 0.12 0.27 0.66 0.22 0.70 0.20 0.26 0.34 nan nan nan
SL_Ratio
nan nan nan nan nan nan nan nan 6.2 6.8 10.0 nan nan nan nan nan nan nan nan nan nan nan nan nan nan nan nan nan nan nan nan nan nan nan nan nan nan nan
nan nan nan nan nan nan nan nan nan 5.8 6.8 nan nan nan nan nan nan nan nan nan nan nan nan nan nan nan nan nan nan nan nan nan nan nan nan nan nan nan
nan nan nan nan nan nan nan nan nan nan 6.7 nan nan nan nan nan nan nan nan nan nan nan nan nan nan nan nan nan nan nan nan nan nan nan nan nan nan nan
nan nan nan nan nan nan nan nan nan nan 6.7 6.6 nan nan nan nan nan nan nan nan nan nan nan nan nan nan nan nan nan nan nan nan nan nan nan nan nan nan
nan 0.0 6.3 5.0 6.7 5.7 nan nan nan nan nan 6.2 5.0 nan nan nan nan nan nan nan nan nan nan nan nan nan nan nan nan nan nan nan nan nan nan nan nan nan
nan 5.0 6.4 6.5 6.5 6.5 5.7 6.4 nan nan nan nan 6.7 6.0 nan nan nan nan nan nan 6.4 6.3 nan nan nan nan nan nan nan nan nan nan nan nan nan nan nan nan
nan 5.0 5.7 nan nan nan 6.6 7.0 6.6 6.2 5.6 6.0 6.0 4.8 3.3 4.3 6.5 7.3 6.4 6.1 5.9 6.4 5.7 4.7 4.7 4.7 4.4 nan nan nan nan nan nan nan nan nan nan nan
5.7 5.0 5.3 5.6 5.6 nan nan nan nan 7.9 6.7 6.4 6.2 7.2 6.7 6.4 6.0 7.6 7.5 6.5 6.4 6.8 7.1 4.4 5.2 4.9 5.2 5.3 nan nan nan nan nan nan nan nan nan nan
5.8 6.1 6.4 6.3 nan 6.7 nan nan nan nan nan 7.1 8.0 8.1 7.8 7.6 7.1 7.3 7.4 6.7 6.8 7.0 8.1 4.1 4.2 3.8 3.7 5.4 nan nan nan nan nan nan nan nan nan nan
5.8 6.0 6.1 6.4 6.4 6.7 6.8 6.3 6.1 5.8 5.7 6.1 6.0 5.4 5.4 6.1 7.5 7.6 7.7 6.7 4.5 4.0 6.2 4.9 4.0 4.4 3.5 3.2 nan nan nan nan nan nan nan nan nan nan
6.3 5.7 5.8 6.3 nan nan 6.4 6.5 6.3 6.1 nan nan nan nan nan nan nan 3.1 3.0 3.4 3.5 4.1 4.1 5.0 4.5 4.6 3.8 3.6 2.7 nan nan nan nan nan nan nan nan nan
5.8 5.2 nan 6.1 nan nan 6.4 6.2 6.2 6.5 5.8 5.3 5.4 5.3 nan nan nan 5.1 4.4 3.8 4.2 4.5 4.1 5.0 4.3 4.3 4.9 3.5 3.6 3.6 3.1 nan nan nan nan nan nan 3.5
5.3 5.1 4.7 nan nan nan nan 5.5 6.2 5.5 5.5 5.5 5.6 5.2 5.4 5.4 5.5 5.4 5.5 5.4 4.9 5.7 5.5 4.6 4.9 4.6 4.5 5.2 4.8 4.9 4.4 4.3 4.0 3.9 nan nan nan 3.6
6.0 5.5 5.1 nan nan nan 4.6 nan nan 3.6 4.2 4.4 4.5 5.0 5.3 5.4 5.6 5.0 5.0 4.8 4.9 5.7 4.9 4.3 5.4 5.9 5.8 5.8 6.8 6.2 5.7 5.1 4.4 4.4 4.3 nan nan nan
5.7 5.5 nan nan nan 3.0 nan nan 3.0 5.8 5.6 6.0 6.4 6.4 5.9 5.3 4.8 4.5 4.0 4.0 4.1 4.3 4.4 4.3 4.7 5.0 5.3 6.1 6.5 6.2 5.9 5.9 6.0 5.9 5.3 4.8 5.0 4.7
3.6 5.3 3.0 4.9 3.0 3.8 4.7 5.8 5.9 6.2 6.6 6.9 7.3 7.2 6.8 6.8 6.9 6.2 6.2 5.8 5.8 5.8 4.8 4.6 4.3 4.3 5.4 5.5 5.9 6.6 6.0 6.3 6.5 6.3 5.9 5.5 4.9 4.4
3.9 4.8 5.3 5.6 6.2 6.3 6.3 6.1 5.9 5.8 6.4 6.3 6.2 6.4 6.4 6.0 6.0 5.3 5.4 5.6 6.5 7.2 6.6 5.8 5.7 5.5 6.1 6.1 6.3 6.4 6.7 6.9 6.3 6.2 5.5 5.2 4.7 4.7
4.9 5.8 6.5 6.2 6.2 6.3 6.4 6.4 6.2 5.1 5.6 5.3 5.3 5.4 5.7 5.4 5.2 4.4 4.4 4.8 5.8 5.9 6.1 6.1 5.5 5.4 5.4 5.9 6.9 7.5 6.6 6.7 6.3 6.0 5.7 6.2 6.4 5.3
5.6 6.0 6.5 6.3 5.9 5.8 5.7 5.9 6.6 5.7 5.7 4.9 5.3 5.8 5.7 5.3 5.0 4.6 4.4 4.3 4.4 4.1 4.3 4.2 4.9 5.2 6.7 7.5 6.5 nan 6.8 6.1 6.0 6.0 5.7 6.5 6.6 6.5
5.4 5.9 6.6 6.3 5.9 6.0 5.9 5.7 5.7 5.6 5.9 5.8 5.9 6.0 6.0 6.1 5.6 5.8 5.2 5.8 5.0 4.0 3.9 3.6 3.7 4.5 6.4 6.9 5.8 5.5 nan 5.3 5.5 6.1 6.8 6.5 5.7 nan
6.1 6.5 6.8 6.8 6.5 6.3 6.8 6.8 6.8 6.7 6.4 6.5 6.2 6.1 6.0 6.0 5.8 5.9 6.4 4.8 4.1 4.7 5.2 4.9 3.9 3.1 3.9 3.7 4.8 4.6 4.0 nan 5.3 5.9 6.0 6.2 6.3 6.4
7.4 7.4 7.2 7.2 7.4 7.2 6.9 6.5 6.3 6.2 6.5 6.4 6.6 6.1 5.9 6.1 6.8 6.7 6.3 6.2 6.2 5.8 5.6 4.7 3.9 3.9 3.9 4.7 5.1 4.5 4.5 3.8 nan nan nan nan 8.1 8.7
7.3 7.3 7.3 7.2 7.0 6.8 6.3 7.1 6.6 6.3 6.8 6.8 6.8 6.8 5.8 7.4 6.4 6.3 6.3 6.2 6.2 6.1 5.9 6.0 5.1 4.5 4.4 4.6 4.9 4.9 5.6 4.9 4.5 4.6 4.2 nan nan nan